owner,sensor,date,latitude,longitude,vertical_datum,direction_of_sea_water_velocity,sea_water_speed,upward_sea_water_velocity,qcFlag 
TABS,ioos:station:wmo:42044:1,2016-04-01T00:00:00Z,26.1914,-97.0507,2.0,16.43813026,26.04452534,-99999.0,'11111222,11111222,99999999' 
TABS,ioos:station:wmo:42044:1,2016-04-01T00:30:00Z,26.1914,-97.0507,2.0,18.7664047,20.23575301,-99999.0,'11111222,11111222,99999999' 
TABS,ioos:station:wmo:42044:1,2016-04-01T01:00:00Z,26.1914,-97.0507,2.0,26.19248747,19.93720392,-99999.0,'11111222,11111222,99999999' 
TABS,ioos:station:wmo:42044:1,2016-04-01T01:30:00Z,26.1914,-97.0507,2.0,25.82702793,19.78637157,-99999.0,'11111222,11111222,99999999' 
TABS,ioos:station:wmo:42044:1,2016-04-01T02:00:00Z,26.1914,-97.0507,2.0,22.73269817,20.34003933,-99999.0,'11111222,11111222,99999999' 
TABS,ioos:station:wmo:42044:1,2016-04-01T02:30:00Z,26.1914,-97.0507,2.0,37.52377535,17.87916385,-99999.0,'11111222,11111222,99999999' 
TABS,ioos:station:wmo:42044:1,2016-04-01T03:00:00Z,26.1914,-97.0507,2.0,37.00855779,15.71604594,-99999.0,'11111222,11111222,99999999' 
TABS,ioos:station:wmo:42044:1,2016-04-01T03:30:00Z,26.1914,-97.0507,2.0,35.57267242,15.28191742,-99999.0,'11111222,11111222,99999999' 
TABS,ioos:station:wmo:42044:1,2016-04-01T04:00:00Z,26.1914,-97.0507,2.0,37.19062442,13.58221263,-99999.0,'11111222,11111222,99999999' 
TABS,ioos:station:wmo:42044:1,2016-04-01T04:30:00Z,26.1914,-97.0507,2.0,42.29770617,12.89782927,-99999.0,'11111222,11111222,99999999' 
TABS,ioos:station:wmo:42044:1,2016-04-01T05:00:00Z,26.1914,-97.0507,2.0,40.9168612,12.21445455,-99999.0,'11111222,11111222,99999999' 
TABS,ioos:station:wmo:42044:1,2016-04-01T05:30:00Z,26.1914,-97.0507,2.0,41.17607139,10.81452727,-99999.0,'11111222,11111222,99999999' 
TABS,ioos:station:wmo:42044:1,2016-04-01T06:00:00Z,26.1914,-97.0507,2.0,42.72736542,10.87678721,-99999.0,'11111222,11111222,99999999' 
TABS,ioos:station:wmo:42044:1,2016-04-01T06:30:00Z,26.1914,-97.0507,2.0,40.68331503,9.863837995,-99999.0,'11133222,11111222,99999999' 
TABS,ioos:station:wmo:42044:1,2016-04-01T07:00:00Z,26.1914,-97.0507,2.0,44.11187181,10.94732844,-99999.0,'11111222,11111222,99999999' 
TABS,ioos:station:wmo:42044:1,2016-04-01T07:30:00Z,26.1914,-97.0507,2.0,36.11572423,10.0268689,-99999.0,'11111222,11111222,99999999' 
TABS,ioos:station:wmo:42044:1,2016-04-01T08:00:00Z,26.1914,-97.0507,2.0,48.48802317,10.57669608,-99999.0,'11111222,11111222,99999999' 
TABS,ioos:station:wmo:42044:1,2016-04-01T08:30:00Z,26.1914,-97.0507,2.0,44.15134294,11.45638686,-99999.0,'11111222,11111222,99999999' 
TABS,ioos:station:wmo:42044:1,2016-04-01T09:00:00Z,26.1914,-97.0507,2.0,48.15689912,9.758739673,-99999.0,'11133222,11111222,99999999' 
TABS,ioos:station:wmo:42044:1,2016-04-01T09:30:00Z,26.1914,-97.0507,2.0,46.87376541,11.02969175,-99999.0,'11111222,11111222,99999999' 
TABS,ioos:station:wmo:42044:1,2016-04-01T10:00:00Z,26.1914,-97.0507,2.0,33.47641047,9.662944686,-99999.0,'11133222,11111222,99999999' 
TABS,ioos:station:wmo:42044:1,2016-04-01T10:30:00Z,26.1914,-97.0507,2.0,63.3017655,9.615118304,-99999.0,'11133222,11111222,99999999' 
TABS,ioos:station:wmo:42044:1,2016-04-01T11:00:00Z,26.1914,-97.0507,2.0,55.68499264,7.62758153,-99999.0,'11133222,11111222,99999999' 
TABS,ioos:station:wmo:42044:1,2016-04-01T11:30:00Z,26.1914,-97.0507,2.0,57.23066094,6.041465054,-99999.0,'11133222,11111222,99999999' 
TABS,ioos:station:wmo:42044:1,2016-04-01T12:00:00Z,26.1914,-97.0507,2.0,35.82539939,2.08434642,-99999.0,'11133222,11111222,99999999' 
TABS,ioos:station:wmo:42044:1,2016-04-01T12:30:00Z,26.1914,-97.0507,2.0,48.07398705,4.87898555,-99999.0,'11133222,11111222,99999999' 
TABS,ioos:station:wmo:42044:1,2016-04-01T13:00:00Z,26.1914,-97.0507,2.0,47.86250376,0.849588136,-99999.0,'11133222,11111222,99999999' 
TABS,ioos:station:wmo:42044:1,2016-04-01T13:30:00Z,26.1914,-97.0507,2.0,76.04755486,1.658945448,-99999.0,'11133222,11111222,99999999' 
TABS,ioos:station:wmo:42044:1,2016-04-01T14:00:00Z,26.1914,-97.0507,2.0,65.30849958,2.872646863,-99999.0,'11133222,11111222,99999999' 
TABS,ioos:station:wmo:42044:1,2016-04-01T14:30:00Z,26.1914,-97.0507,2.0,142.8415796,1.192015101,-99999.0,'11133222,11111222,99999999' 
TABS,ioos:station:wmo:42044:1,2016-04-01T15:00:00Z,26.1914,-97.0507,2.0,99.07873664,1.964611921,-99999.0,'11133222,11111222,99999999' 
TABS,ioos:station:wmo:42044:1,2016-04-01T15:30:00Z,26.1914,-97.0507,2.0,226.0874456,2.234860175,-99999.0,'11133222,11111222,99999999' 
TABS,ioos:station:wmo:42044:1,2016-04-01T16:00:00Z,26.1914,-97.0507,2.0,165.4996567,2.396330528,-99999.0,'11133222,11111222,99999999' 
TABS,ioos:station:wmo:42044:1,2016-04-01T16:30:00Z,26.1914,-97.0507,2.0,207.1052875,2.370337529,-99999.0,'11133222,11111222,99999999' 
TABS,ioos:station:wmo:42044:1,2016-04-01T17:00:00Z,26.1914,-97.0507,2.0,163.0399822,1.474109901,-99999.0,'11133222,11111222,99999999' 
TABS,ioos:station:wmo:42044:1,2016-04-01T17:30:00Z,26.1914,-97.0507,2.0,216.4305625,1.044030651,-99999.0,'11133222,11111222,99999999' 
TABS,ioos:station:wmo:42044:1,2016-04-01T18:00:00Z,26.1914,-97.0507,2.0,160.4757442,4.159146547,-99999.0,'11133222,11111222,99999999' 
TABS,ioos:station:wmo:42044:1,2016-04-01T18:30:00Z,26.1914,-97.0507,2.0,185.7811726,7.24686139,-99999.0,'11133222,11111222,99999999' 
TABS,ioos:station:wmo:42044:1,2016-04-01T19:00:00Z,26.1914,-97.0507,2.0,176.5979566,13.31345936,-99999.0,'11111222,11111222,99999999' 
TABS,ioos:station:wmo:42044:1,2016-04-01T19:30:00Z,26.1914,-97.0507,2.0,172.2052196,16.66396411,-99999.0,'11111222,11111222,99999999' 
TABS,ioos:station:wmo:42044:1,2016-04-01T20:00:00Z,26.1914,-97.0507,2.0,169.8569496,19.93149518,-99999.0,'11111222,11111222,99999999' 
TABS,ioos:station:wmo:42044:1,2016-04-01T20:30:00Z,26.1914,-97.0507,2.0,170.0885721,25.3889149,-99999.0,'11111222,11111222,99999999' 
TABS,ioos:station:wmo:42044:1,2016-04-01T21:00:00Z,26.1914,-97.0507,2.0,174.4162867,28.26410091,-99999.0,'11111222,11111222,99999999' 
TABS,ioos:station:wmo:42044:1,2016-04-01T21:30:00Z,26.1914,-97.0507,2.0,174.0475202,30.66532896,-99999.0,'11111222,11111222,99999999' 
TABS,ioos:station:wmo:42044:1,2016-04-01T22:00:00Z,26.1914,-97.0507,2.0,169.981287,37.76587084,-99999.0,'11111222,11111222,99999999' 
TABS,ioos:station:wmo:42044:1,2016-04-01T22:30:00Z,26.1914,-97.0507,2.0,177.7895751,40.45009271,-99999.0,'11111222,11111222,99999999' 
TABS,ioos:station:wmo:42044:1,2016-04-01T23:00:00Z,26.1914,-97.0507,2.0,172.4266437,45.82975562,-99999.0,'11111222,11111222,99999999' 
TABS,ioos:station:wmo:42044:1,2016-04-01T23:30:00Z,26.1914,-97.0507,2.0,181.3077395,45.56187112,-99999.0,'11111222,11111222,99999999' 
TABS,ioos:station:wmo:42044:1,2016-04-02T00:00:00Z,26.1914,-97.0507,2.0,178.5306958,49.53628266,-99999.0,'11111222,11111222,99999999' 
TABS,ioos:station:wmo:42044:1,2016-04-02T00:30:00Z,26.1914,-97.0507,2.0,172.277637,55.81618135,-99999.0,'11111222,11111222,99999999' 
TABS,ioos:station:wmo:42044:1,2016-04-02T01:00:00Z,26.1914,-97.0507,2.0,179.0714214,55.54729156,-99999.0,'11111222,11111222,99999999' 
TABS,ioos:station:wmo:42044:1,2016-04-02T01:30:00Z,26.1914,-97.0507,2.0,175.5189334,59.90309508,-99999.0,'11111222,11111222,99999999' 
TABS,ioos:station:wmo:42044:1,2016-04-02T02:00:00Z,26.1914,-97.0507,2.0,177.0098278,56.74725103,-99999.0,'11111222,11111222,99999999' 
TABS,ioos:station:wmo:42044:1,2016-04-02T02:30:00Z,26.1914,-97.0507,2.0,180.8910933,57.85700044,-99999.0,'11111222,11111222,99999999' 
TABS,ioos:station:wmo:42044:1,2016-04-02T03:00:00Z,26.1914,-97.0507,2.0,175.1741924,56.82141146,-99999.0,'11111222,11111222,99999999' 
TABS,ioos:station:wmo:42044:1,2016-04-02T03:30:00Z,26.1914,-97.0507,2.0,176.8455305,54.7028747,-99999.0,'11111222,11111222,99999999' 
TABS,ioos:station:wmo:42044:1,2016-04-02T04:00:00Z,26.1914,-97.0507,2.0,177.0980202,58.865478,-99999.0,'11111222,11111222,99999999' 
TABS,ioos:station:wmo:42044:1,2016-04-02T04:30:00Z,26.1914,-97.0507,2.0,179.7263041,54.47062052,-99999.0,'11111222,11111222,99999999' 
TABS,ioos:station:wmo:42044:1,2016-04-02T05:00:00Z,26.1914,-97.0507,2.0,172.463002,56.95201928,-99999.0,'11111222,11111222,99999999' 
TABS,ioos:station:wmo:42044:1,2016-04-02T05:30:00Z,26.1914,-97.0507,2.0,169.4464293,52.57939711,-99999.0,'11111222,11111222,99999999' 
TABS,ioos:station:wmo:42044:1,2016-04-02T06:00:00Z,26.1914,-97.0507,2.0,174.4750681,52.45366145,-99999.0,'11111222,11111222,99999999' 
TABS,ioos:station:wmo:42044:1,2016-04-02T06:30:00Z,26.1914,-97.0507,2.0,177.209251,51.76137943,-99999.0,'11111222,11111222,99999999' 
TABS,ioos:station:wmo:42044:1,2016-04-02T07:00:00Z,26.1914,-97.0507,2.0,182.945848,55.06277327,-99999.0,'11111222,11111222,99999999' 
TABS,ioos:station:wmo:42044:1,2016-04-02T07:30:00Z,26.1914,-97.0507,2.0,181.7348121,51.19347029,-99999.0,'11111222,11111222,99999999' 
TABS,ioos:station:wmo:42044:1,2016-04-02T08:00:00Z,26.1914,-97.0507,2.0,177.0496749,53.82132849,-99999.0,'11111222,11111222,99999999' 
TABS,ioos:station:wmo:42044:1,2016-04-02T08:30:00Z,26.1914,-97.0507,2.0,176.3428867,51.89566649,-99999.0,'11111222,11111222,99999999' 
TABS,ioos:station:wmo:42044:1,2016-04-02T09:00:00Z,26.1914,-97.0507,2.0,181.7043839,52.44320738,-99999.0,'11111222,11111222,99999999' 
TABS,ioos:station:wmo:42044:1,2016-04-02T09:30:00Z,26.1914,-97.0507,2.0,173.8102581,51.66115078,-99999.0,'11111222,11111222,99999999' 
TABS,ioos:station:wmo:42044:1,2016-04-02T10:00:00Z,26.1914,-97.0507,2.0,180.9548275,47.99666759,-99999.0,'11111222,11111222,99999999' 
TABS,ioos:station:wmo:42044:1,2016-04-02T10:30:00Z,26.1914,-97.0507,2.0,176.0041762,50.80348413,-99999.0,'11111222,11111222,99999999' 
TABS,ioos:station:wmo:42044:1,2016-04-02T11:00:00Z,26.1914,-97.0507,2.0,181.9607832,46.75738337,-99999.0,'11111222,11111222,99999999' 
TABS,ioos:station:wmo:42044:1,2016-04-02T11:30:00Z,26.1914,-97.0507,2.0,185.8960375,45.75205023,-99999.0,'11111222,11111222,99999999' 
TABS,ioos:station:wmo:42044:1,2016-04-02T12:00:00Z,26.1914,-97.0507,2.0,183.5664808,48.22340614,-99999.0,'11111222,11111222,99999999' 
TABS,ioos:station:wmo:42044:1,2016-04-02T12:30:00Z,26.1914,-97.0507,2.0,180.8075414,48.94486388,-99999.0,'11111222,11111222,99999999' 
TABS,ioos:station:wmo:42044:1,2016-04-02T13:00:00Z,26.1914,-97.0507,2.0,180.2506655,47.96045976,-99999.0,'11111222,11111222,99999999' 
TABS,ioos:station:wmo:42044:1,2016-04-02T13:30:00Z,26.1914,-97.0507,2.0,176.8842244,45.997988,-99999.0,'11111222,11111222,99999999' 
TABS,ioos:station:wmo:42044:1,2016-04-02T14:00:00Z,26.1914,-97.0507,2.0,180.8103217,40.29403182,-99999.0,'11111222,11111222,99999999' 
TABS,ioos:station:wmo:42044:1,2016-04-02T14:30:00Z,26.1914,-97.0507,2.0,182.1712201,43.81145969,-99999.0,'11111222,11111222,99999999' 
TABS,ioos:station:wmo:42044:1,2016-04-02T15:00:00Z,26.1914,-97.0507,2.0,184.57969,41.95396167,-99999.0,'11111222,11111222,99999999' 
TABS,ioos:station:wmo:42044:1,2016-04-02T15:30:00Z,26.1914,-97.0507,2.0,181.4163333,43.2832277,-99999.0,'11111222,11111222,99999999' 
TABS,ioos:station:wmo:42044:1,2016-04-02T16:00:00Z,26.1914,-97.0507,2.0,185.3517942,42.13368486,-99999.0,'11111222,11111222,99999999' 
TABS,ioos:station:wmo:42044:1,2016-04-02T16:30:00Z,26.1914,-97.0507,2.0,175.1382742,44.72088662,-99999.0,'11111222,11111222,99999999' 
TABS,ioos:station:wmo:42044:1,2016-04-02T17:00:00Z,26.1914,-97.0507,2.0,181.5681372,39.09464541,-99999.0,'11111222,11111222,99999999' 
TABS,ioos:station:wmo:42044:1,2016-04-02T17:30:00Z,26.1914,-97.0507,2.0,181.8232453,40.5405291,-99999.0,'11111222,11111222,99999999' 
TABS,ioos:station:wmo:42044:1,2016-04-02T18:00:00Z,26.1914,-97.0507,2.0,178.7457715,38.83930226,-99999.0,'11111222,11111222,99999999' 
TABS,ioos:station:wmo:42044:1,2016-04-02T18:30:00Z,26.1914,-97.0507,2.0,179.220398,41.90387691,-99999.0,'11111222,11111222,99999999' 
TABS,ioos:station:wmo:42044:1,2016-04-02T19:00:00Z,26.1914,-97.0507,2.0,179.6821254,39.68060987,-99999.0,'11111222,11111222,99999999' 
TABS,ioos:station:wmo:42044:1,2016-04-02T19:30:00Z,26.1914,-97.0507,2.0,181.1912795,41.83904636,-99999.0,'11111222,11111222,99999999' 
TABS,ioos:station:wmo:42044:1,2016-04-02T20:00:00Z,26.1914,-97.0507,2.0,176.0440046,40.87738739,-99999.0,'11111222,11111222,99999999' 
TABS,ioos:station:wmo:42044:1,2016-04-02T20:30:00Z,26.1914,-97.0507,2.0,178.4494878,43.24582986,-99999.0,'11111222,11111222,99999999' 
TABS,ioos:station:wmo:42044:1,2016-04-02T21:00:00Z,26.1914,-97.0507,2.0,177.4703013,37.38642802,-99999.0,'11111222,11111222,99999999' 
TABS,ioos:station:wmo:42044:1,2016-04-02T21:30:00Z,26.1914,-97.0507,2.0,179.3598116,37.60234567,-99999.0,'11111222,11111222,99999999' 
TABS,ioos:station:wmo:42044:1,2016-04-02T22:00:00Z,26.1914,-97.0507,2.0,175.3995243,36.40728636,-99999.0,'11111222,11111222,99999999' 
TABS,ioos:station:wmo:42044:1,2016-04-02T22:30:00Z,26.1914,-97.0507,2.0,176.800161,36.90753446,-99999.0,'11111222,11111222,99999999' 
TABS,ioos:station:wmo:42044:1,2016-04-02T23:00:00Z,26.1914,-97.0507,2.0,181.2153844,33.46753203,-99999.0,'11111222,11111222,99999999' 
TABS,ioos:station:wmo:42044:1,2016-04-02T23:30:00Z,26.1914,-97.0507,2.0,177.5138169,34.81276346,-99999.0,'11111222,11111222,99999999' 
TABS,ioos:station:wmo:42044:1,2016-04-03T00:00:00Z,26.1914,-97.0507,2.0,173.7346245,32.8964755,-99999.0,'11111222,11111222,99999999' 
TABS,ioos:station:wmo:42044:1,2016-04-03T00:30:00Z,26.1914,-97.0507,2.0,174.7526629,29.52371928,-99999.0,'11111222,11111222,99999999' 
TABS,ioos:station:wmo:42044:1,2016-04-03T01:00:00Z,26.1914,-97.0507,2.0,174.2783839,31.59740654,-99999.0,'11111222,11111222,99999999' 
TABS,ioos:station:wmo:42044:1,2016-04-03T01:30:00Z,26.1914,-97.0507,2.0,178.1031514,30.51671837,-99999.0,'11111222,11111222,99999999' 
TABS,ioos:station:wmo:42044:1,2016-04-03T02:00:00Z,26.1914,-97.0507,2.0,174.4246885,28.61535951,-99999.0,'11111222,11111222,99999999' 
TABS,ioos:station:wmo:42044:1,2016-04-03T02:30:00Z,26.1914,-97.0507,2.0,180.5829312,27.5114249,-99999.0,'11111222,11111222,99999999' 
TABS,ioos:station:wmo:42044:1,2016-04-03T03:00:00Z,26.1914,-97.0507,2.0,174.7975337,26.46903096,-99999.0,'11111222,11111222,99999999' 
TABS,ioos:station:wmo:42044:1,2016-04-03T03:30:00Z,26.1914,-97.0507,2.0,179.7865313,24.18016749,-99999.0,'11111222,11111222,99999999' 
TABS,ioos:station:wmo:42044:1,2016-04-03T04:00:00Z,26.1914,-97.0507,2.0,175.057946,24.02932583,-99999.0,'11111222,11111222,99999999' 
TABS,ioos:station:wmo:42044:1,2016-04-03T04:30:00Z,26.1914,-97.0507,2.0,171.9629596,23.46041986,-99999.0,'11111222,11111222,99999999' 
TABS,ioos:station:wmo:42044:1,2016-04-03T05:00:00Z,26.1914,-97.0507,2.0,171.1869085,20.886589,-99999.0,'11111222,11111222,99999999' 
TABS,ioos:station:wmo:42044:1,2016-04-03T05:30:00Z,26.1914,-97.0507,2.0,171.3145552,21.45604111,-99999.0,'11111222,11111222,99999999' 
TABS,ioos:station:wmo:42044:1,2016-04-03T06:00:00Z,26.1914,-97.0507,2.0,169.7281564,23.161196,-99999.0,'11111222,11111222,99999999' 
TABS,ioos:station:wmo:42044:1,2016-04-03T06:30:00Z,26.1914,-97.0507,2.0,171.2720655,21.28648632,-99999.0,'11111222,11111222,99999999' 
TABS,ioos:station:wmo:42044:1,2016-04-03T07:00:00Z,26.1914,-97.0507,2.0,173.5510422,19.23168479,-99999.0,'11111222,11111222,99999999' 
TABS,ioos:station:wmo:42044:1,2016-04-03T07:30:00Z,26.1914,-97.0507,2.0,177.0694264,19.3653221,-99999.0,'11111222,11111222,99999999' 
TABS,ioos:station:wmo:42044:1,2016-04-03T08:00:00Z,26.1914,-97.0507,2.0,173.7164834,18.91361679,-99999.0,'11111222,11111222,99999999' 
TABS,ioos:station:wmo:42044:1,2016-04-03T08:30:00Z,26.1914,-97.0507,2.0,177.2662643,18.87147318,-99999.0,'11111222,11111222,99999999' 
TABS,ioos:station:wmo:42044:1,2016-04-03T09:00:00Z,26.1914,-97.0507,2.0,177.0388603,19.16558635,-99999.0,'11111222,11111222,99999999' 
TABS,ioos:station:wmo:42044:1,2016-04-03T09:30:00Z,26.1914,-97.0507,2.0,175.2952108,18.53243913,-99999.0,'11111222,11111222,99999999' 
TABS,ioos:station:wmo:42044:1,2016-04-03T10:00:00Z,26.1914,-97.0507,2.0,174.0962704,15.06992369,-99999.0,'11111222,11111222,99999999' 
TABS,ioos:station:wmo:42044:1,2016-04-03T10:30:00Z,26.1914,-97.0507,2.0,176.4773245,17.25259401,-99999.0,'11111222,11111222,99999999' 
TABS,ioos:station:wmo:42044:1,2016-04-03T11:00:00Z,26.1914,-97.0507,2.0,177.9506678,16.50055151,-99999.0,'11111222,11111222,99999999' 
TABS,ioos:station:wmo:42044:1,2016-04-03T11:30:00Z,26.1914,-97.0507,2.0,177.0757187,13.91812128,-99999.0,'11111222,11111222,99999999' 
TABS,ioos:station:wmo:42044:1,2016-04-03T12:00:00Z,26.1914,-97.0507,2.0,177.3187194,13.25450867,-99999.0,'11111222,11111222,99999999' 
TABS,ioos:station:wmo:42044:1,2016-04-03T12:30:00Z,26.1914,-97.0507,2.0,190.377012,11.32524613,-99999.0,'11111222,11111222,99999999' 
TABS,ioos:station:wmo:42044:1,2016-04-03T13:00:00Z,26.1914,-97.0507,2.0,188.1778994,13.49725898,-99999.0,'11111222,11111222,99999999' 
TABS,ioos:station:wmo:42044:1,2016-04-03T13:30:00Z,26.1914,-97.0507,2.0,176.4160167,9.598770755,-99999.0,'11133222,11111222,99999999' 
TABS,ioos:station:wmo:42044:1,2016-04-03T14:00:00Z,26.1914,-97.0507,2.0,238.2289674,14.49135259,-99999.0,'11111222,11111222,99999999' 
TABS,ioos:station:wmo:42044:1,2016-04-03T14:30:00Z,26.1914,-97.0507,2.0,242.8185316,13.30984598,-99999.0,'11111222,11111222,99999999' 
TABS,ioos:station:wmo:42044:1,2016-04-03T15:00:00Z,26.1914,-97.0507,2.0,239.814429,9.844927628,-99999.0,'11133222,11111222,99999999' 
TABS,ioos:station:wmo:42044:1,2016-04-03T15:30:00Z,26.1914,-97.0507,2.0,240.0877792,11.49062661,-99999.0,'11111222,11111222,99999999' 
TABS,ioos:station:wmo:42044:1,2016-04-03T16:00:00Z,26.1914,-97.0507,2.0,240.5721915,11.19430659,-99999.0,'11111222,11111222,99999999' 
TABS,ioos:station:wmo:42044:1,2016-04-03T16:30:00Z,26.1914,-97.0507,2.0,240.5688648,11.53912475,-99999.0,'11111222,11111222,99999999' 
TABS,ioos:station:wmo:42044:1,2016-04-03T17:00:00Z,26.1914,-97.0507,2.0,244.3452823,12.38043618,-99999.0,'11111222,11111222,99999999' 
TABS,ioos:station:wmo:42044:1,2016-04-03T17:30:00Z,26.1914,-97.0507,2.0,255.5563233,11.26606409,-99999.0,'11111222,11111222,99999999' 
TABS,ioos:station:wmo:42044:1,2016-04-03T18:00:00Z,26.1914,-97.0507,2.0,268.2565978,9.534411361,-99999.0,'11133222,11111222,99999999' 
TABS,ioos:station:wmo:42044:1,2016-04-03T18:30:00Z,26.1914,-97.0507,2.0,267.2969462,8.058963953,-99999.0,'11133222,11111222,99999999' 
TABS,ioos:station:wmo:42044:1,2016-04-03T19:00:00Z,26.1914,-97.0507,2.0,270.0004209,7.43,-99999.0,'11133222,11111222,99999999' 
TABS,ioos:station:wmo:42044:1,2016-04-03T19:30:00Z,26.1914,-97.0507,2.0,270.8737625,6.560762151,-99999.0,'11133222,11111222,99999999' 
TABS,ioos:station:wmo:42044:1,2016-04-03T20:00:00Z,26.1914,-97.0507,2.0,230.7265182,9.92072578,-99999.0,'11133222,11111222,99999999' 
TABS,ioos:station:wmo:42044:1,2016-04-03T20:30:00Z,26.1914,-97.0507,2.0,221.3281661,12.47776022,-99999.0,'11111222,11111222,99999999' 
TABS,ioos:station:wmo:42044:1,2016-04-03T21:00:00Z,26.1914,-97.0507,2.0,227.5824471,12.08258664,-99999.0,'11111222,11111222,99999999' 
TABS,ioos:station:wmo:42044:1,2016-04-03T21:30:00Z,26.1914,-97.0507,2.0,209.8214308,11.09987838,-99999.0,'11111222,11111222,99999999' 
TABS,ioos:station:wmo:42044:1,2016-04-03T22:00:00Z,26.1914,-97.0507,2.0,224.7383274,13.95136194,-99999.0,'11111222,11111222,99999999' 
TABS,ioos:station:wmo:42044:1,2016-04-03T22:30:00Z,26.1914,-97.0507,2.0,223.0043154,15.02806042,-99999.0,'11111222,11111222,99999999' 
TABS,ioos:station:wmo:42044:1,2016-04-03T23:00:00Z,26.1914,-97.0507,2.0,219.5403245,14.12133846,-99999.0,'11111222,11111222,99999999' 
TABS,ioos:station:wmo:42044:1,2016-04-03T23:30:00Z,26.1914,-97.0507,2.0,236.2322087,14.3750687,-99999.0,'11111222,11111222,99999999' 
TABS,ioos:station:wmo:42044:1,2016-04-04T00:00:00Z,26.1914,-97.0507,2.0,234.0331268,16.61806547,-99999.0,'11111222,11111222,99999999' 
TABS,ioos:station:wmo:42044:1,2016-04-04T00:30:00Z,26.1914,-97.0507,2.0,236.7893274,13.9123686,-99999.0,'11111222,11111222,99999999' 
TABS,ioos:station:wmo:42044:1,2016-04-04T01:00:00Z,26.1914,-97.0507,2.0,228.9584691,12.29055735,-99999.0,'11111222,11111222,99999999' 
TABS,ioos:station:wmo:42044:1,2016-04-04T01:30:00Z,26.1914,-97.0507,2.0,247.32014,14.78308493,-99999.0,'11111222,11111222,99999999' 
TABS,ioos:station:wmo:42044:1,2016-04-04T02:00:00Z,26.1914,-97.0507,2.0,247.8014841,14.21346193,-99999.0,'11111222,11111222,99999999' 
TABS,ioos:station:wmo:42044:1,2016-04-04T02:30:00Z,26.1914,-97.0507,2.0,242.3063752,12.26497452,-99999.0,'11111222,11111222,99999999' 
TABS,ioos:station:wmo:42044:1,2016-04-04T03:00:00Z,26.1914,-97.0507,2.0,264.1435792,15.68183663,-99999.0,'11111222,11111222,99999999' 
TABS,ioos:station:wmo:42044:1,2016-04-04T03:30:00Z,26.1914,-97.0507,2.0,259.7344626,11.61592872,-99999.0,'11111222,11111222,99999999' 
TABS,ioos:station:wmo:42044:1,2016-04-04T04:00:00Z,26.1914,-97.0507,2.0,265.4094689,9.871661461,-99999.0,'11133222,11111222,99999999' 
TABS,ioos:station:wmo:42044:1,2016-04-04T04:30:00Z,26.1914,-97.0507,2.0,250.9538687,7.415962513,-99999.0,'11133222,11111222,99999999' 
TABS,ioos:station:wmo:42044:1,2016-04-04T05:00:00Z,26.1914,-97.0507,2.0,245.2443271,8.071759412,-99999.0,'11133222,11111222,99999999' 
TABS,ioos:station:wmo:42044:1,2016-04-04T05:30:00Z,26.1914,-97.0507,2.0,252.865068,5.295016525,-99999.0,'11133222,11111222,99999999' 
TABS,ioos:station:wmo:42044:1,2016-04-04T06:00:00Z,26.1914,-97.0507,2.0,230.8186416,4.463630809,-99999.0,'11133222,11111222,99999999' 
TABS,ioos:station:wmo:42044:1,2016-04-04T06:30:00Z,26.1914,-97.0507,2.0,225.268676,6.02461617,-99999.0,'11133222,11111222,99999999' 
TABS,ioos:station:wmo:42044:1,2016-04-04T07:00:00Z,26.1914,-97.0507,2.0,207.9317531,5.998841555,-99999.0,'11133222,11111222,99999999' 
TABS,ioos:station:wmo:42044:1,2016-04-04T07:30:00Z,26.1914,-97.0507,2.0,179.0024806,5.170783306,-99999.0,'11133222,11111222,99999999' 
TABS,ioos:station:wmo:42044:1,2016-04-04T08:00:00Z,26.1914,-97.0507,2.0,192.7462142,5.710735504,-99999.0,'11133222,11111222,99999999' 
TABS,ioos:station:wmo:42044:1,2016-04-04T08:30:00Z,26.1914,-97.0507,2.0,191.6986998,6.066011869,-99999.0,'11133222,11111222,99999999' 
TABS,ioos:station:wmo:42044:1,2016-04-04T09:00:00Z,26.1914,-97.0507,2.0,228.4352651,4.129854719,-99999.0,'11133222,11111222,99999999' 
TABS,ioos:station:wmo:42044:1,2016-04-04T09:30:00Z,26.1914,-97.0507,2.0,181.2542382,2.740656856,-99999.0,'11133222,11111222,99999999' 
TABS,ioos:station:wmo:42044:1,2016-04-04T10:00:00Z,26.1914,-97.0507,2.0,263.4089857,2.526697449,-99999.0,'11133222,11111222,99999999' 
TABS,ioos:station:wmo:42044:1,2016-04-04T10:30:00Z,26.1914,-97.0507,2.0,245.5847902,4.887013403,-99999.0,'11133222,11111222,99999999' 
TABS,ioos:station:wmo:42044:1,2016-04-04T11:00:00Z,26.1914,-97.0507,2.0,238.5007498,5.875797818,-99999.0,'11133222,11111222,99999999' 
TABS,ioos:station:wmo:42044:1,2016-04-04T11:30:00Z,26.1914,-97.0507,2.0,236.4299592,3.960568141,-99999.0,'11133222,11111222,99999999' 
TABS,ioos:station:wmo:42044:1,2016-04-04T12:00:00Z,26.1914,-97.0507,2.0,234.493692,2.100595154,-99999.0,'11133222,11111222,99999999' 
TABS,ioos:station:wmo:42044:1,2016-04-04T12:30:00Z,26.1914,-97.0507,2.0,254.6379987,4.718580295,-99999.0,'11133222,11111222,99999999' 
TABS,ioos:station:wmo:42044:1,2016-04-04T13:00:00Z,26.1914,-97.0507,2.0,242.2643165,4.598314909,-99999.0,'11133222,11111222,99999999' 
TABS,ioos:station:wmo:42044:1,2016-04-04T13:30:00Z,26.1914,-97.0507,2.0,260.7992001,5.754024678,-99999.0,'11133222,11111222,99999999' 
TABS,ioos:station:wmo:42044:1,2016-04-04T14:00:00Z,26.1914,-97.0507,2.0,265.2716023,5.338164479,-99999.0,'11133222,11111222,99999999' 
TABS,ioos:station:wmo:42044:1,2016-04-04T14:30:00Z,26.1914,-97.0507,2.0,283.1423913,4.66210253,-99999.0,'11133222,11111222,99999999' 
TABS,ioos:station:wmo:42044:1,2016-04-04T15:00:00Z,26.1914,-97.0507,2.0,273.0520656,6.198790205,-99999.0,'11133222,11111222,99999999' 
TABS,ioos:station:wmo:42044:1,2016-04-04T15:30:00Z,26.1914,-97.0507,2.0,275.4327049,6.760362416,-99999.0,'11133222,11111222,99999999' 
TABS,ioos:station:wmo:42044:1,2016-04-04T16:00:00Z,26.1914,-97.0507,2.0,271.1461811,8.00159984,-99999.0,'11133222,11111222,99999999' 